Погода в Дорогине

Россия / Костромская область     57°35′39″N   43°33′00″E
темп.,
°C
ветер,
м/с
пор.,
м/с
влажн.,
%
обл.,
%
осадки,
мм/ч
давл.,
гПа
погр.,
м
7 мая, пт
пт700:00+11ююз5138479 0.2 1007947
03:00+9ююз41092100 0.5 1007649
06:00+9зюз4896100 3.6 1008592
09:00+8юз3692100 4.8 1009396
12:00+9ююз4686100 2.5 1010778
15:00+10юз3768100 3.1 10101109
18:00+11з485622 0.1 1011730
21:00+6юз22790 0.1 101412
8 мая, сб
сб800:00+5ю24820 0.0 101564
03:00+4ю2585100 0.0 101689
06:00+6ююв3877100 0.0 1016231
09:00+12ююв57505 0.0 10151052
12:00+14ююв6842100 0.0 10131987
15:00+15ю5847100 0.0 10121934
18:00+12ююв3959100 0.0 1010688
21:00+9вюв2985100 0.5 1008281
9 мая, вс
вс900:00+10юв51394100 1.8 1007763
03:00+9ююв51195100 4.8 1006641
06:00+10ююв41097100 0.8 1006541
09:00+10ююв3998100 3.1 1006564
12:00+11ю3897100 1.0 1008492
15:00+11ююз2794100 2.0 1010339
18:00+9ююз3795100 2.3 1012279
21:00+7сз3796100 3.1 1015461
10 мая, пн
пн1000:00+6ссз4995100 0.4 1018501
03:00+6ссз4994100 0.4 1021591
06:00+6ссз499377 0.0 1024581
09:00+10с466925 0.0 1026877
12:00+14ссв45445 0.0 10271335
15:00+15с34368 0.0 10281535
18:00+14с245057 0.0 1028262
21:00+8ссв22679 0.0 103015
11 мая, вт
вт1100:00+6ссв227395 0.0 103113
03:00+5всв117624 0.0 103210
06:00+8всв126817 0.0 103284
09:00+15в124725 0.0 1033603
12:00+19в124227 0.0 10321254
15:00+19св1243100 0.0 10301344
18:00+17св2363100 0.0 103073
21:00+12в1174100 0.0 103011